Location: B�retswil
(47.3376°N, 8.8534°E)
Time: 10:08:58
(UTC+00:00)

Cosmos 2219 Rocket - Pass Details

Date: 03 March 2021
Orbit: 827 x 848 km, 71.0° (Epoch: 10 April)

Event Time Altitude Azimuth Distance (km) Brightness Sun altitude
Rises 17:43:19 0° 143° (SE) 3,356 5.0 -6.0°
Reaches altitude 10° 17:48:05 10° 106° (ESE) 2,434 4.0 -6.8°
Maximum altitude 17:49:10 11° 94° (E) 2,397 3.9 -7.0°
Drops below altitude 10° 17:50:15 10° 83° (E) 2,440 3.9 -7.1°
Enters shadow 17:53:59 - 52° (NE) 3,097 4.6 -7.8°
